Find Starlink 30567

NORAD ID: 58067 Int'l Des: 2023-158 Owner: SPXS Country: US Constellation: starlink operational
LEOCIRCULAR

現在のビュー

3D地球を読み込み中...

About Starlink 30567

Starlink 30567 (NORAD 58067) is a starlink constellation satellite (v2 mini) launched Oct 13, 2023 by SPXS of US. It operates in LEO, CIRCULAR orbit with a mass of 730.00 kg.

次回通過

Passes for default location (London). Set your location on the main map for personalized predictions.

高度履歴

Loading altitude history...

軌道要素

1 58067U 23158S 26230.24154309 .00000714 00000-0 35486-4 0 9998
2 58067 43.0012 194.9809 0001387 262.0827 97.9867 15.27579082158279
Epoch: Aug 18, 2026 • Age: 18 hours

現在のステータス

高度 485.9 km
遠地点 / 近地点 N/A
速度 7.63 km/s
衛星直下点 37.47°N, 71.65°W
打ち上げ日 Oct 13, 2023
運用期間 2.8 years
タイプ internet

技術仕様

分類 Payload
質量 730.00 kg
乾燥質量 700.00 kg
総質量 730.00 kg
長さ 0.30 m
直径 4.10 m
スパン 29.00 m
形状 Box + pan
製造者 SPXS
バスタイプ Starlink V2M
フェーズステータス In Orbit
所有者/国 SPXS/US

Most Searched